Location: Charlottesville
(38.0290°N, 78.4770°W)
Time: 16:03:28
(UTC-05:00)

Tiangong 1 - Pass Details

Date: 08 October 2017
Orbit: 275 x 302 km, 42.8° (Epoch: 14 December)

Event Time Altitude Azimuth Distance (km) Brightness Sun altitude
Rises 20:16:38 0° 281° (W) 2,062 6.5 -18.7°
Reaches altitude 10° 20:18:48 10° 293° (WNW) 1,215 4.7 -19.1°
Enters shadow 20:20:55 27° 342° (NNW) 642 2.4 -19.5°
